This demonstration page uses our WeatherBlox Daily Observations layout. Learn more.

Left ArrowRight Arrow

Hourly Observations for September 17, 2018

Temp ( °F °C ) Dew Point ( °F °C ) Humidity (%) Winds ( mph kmh ) Pressure ( in mb ) Visibility ( mi km ) Precip ( " mm )
12:54 am 00:54 Clear 70 21.1 64 17.8 82 82 S 7 11 29.91 1013 10 16 0.00 0.00
1:54 am 01:54 Clear 69 20.6 63 17.2 81 81 S 6 9 29.91 1013 10 16 0.00 0.00
2:54 am 02:54 Clear 69 20.6 63 17.2 81 81 S 6 9 29.91 1013 10 16 0.00 0.00
3:54 am 03:54 Clear 67 19.4 62 16.7 84 84 S 6 9 29.91 1013 10 16 0.00 0.00
4:54 am 04:54 Clear 67 19.4 62 16.7 84 84 SSE 3 6 29.90 1013 10 16 0.00 0.00
5:54 am 05:54 Clear 68 20 63 17.2 84 84 SSE 6 9 29.90 1013 10 16 0.00 0.00
6:54 am 06:54 Clear 67 19.4 62 16.7 84 84 SSE 5 7 29.91 1013 10 16 0.00 0.00
7:54 am 07:54 Sunny 68 20 63 17.2 84 84 SSE 5 7 29.92 1013 10 16 0.00 0.00
8:54 am 08:54 Sunny 73 22.8 66 18.9 79 79 S 8 13 29.91 1013 10 16 0.00 0.00
9:54 am 09:54 Sunny 79 26.1 69 20.6 72 72 SSE 7 11 29.91 1013 10 16 0.00 0.00
10:54 am 10:54 Sunny 84 28.9 70 21.1 63 63 SSW 10 17 29.90 1013 10 16 0.00 0.00
11:54 am 11:54 Sunny 87 30.6 70 21.1 57 57 S 10 17 29.89 1012 10 16 0.00 0.00
12:54 pm 12:54 Sunny 91 32.8 69 20.6 49 49 S 12 19 29.87 1012 10 16 0.00 0.00
1:54 pm 13:54 Sunny 92 33.3 69 20.6 47 47 S 16 26 29.85 1011 10 16 0.00 0.00
2:54 pm 14:54 Partly Cloudy 94 34.4 67 19.4 41 41 S 13 20 29.85 1011 10 16 0.00 0.00
3:54 pm 15:54 Partly Cloudy 93 33.9 66 18.9 41 41 SSW 9 15 29.83 1010 10 16 0.00 0.00
4:54 pm 16:54 Mostly Sunny 93 33.9 67 19.4 42 42 SSW 10 17 29.82 1010 10 16 0.00 0.00
5:54 pm 17:54 Sunny 92 33.3 66 18.9 43 43 SSW 12 19 29.82 1010 10 16 0.00 0.00
6:54 pm 18:54 Sunny 87 30.6 69 20.6 55 55 S 8 13 29.83 1010 10 16 0.00 0.00
7:54 pm 19:54 Clear 85 29.4 69 20.6 59 59 S 10 17 29.84 1010 10 16 0.00 0.00
8:54 pm 20:54 Clear 81 27.2 70 21.1 69 69 S 10 17 29.85 1011 10 16 0.00 0.00
9:54 pm 21:54 Clear 79 26.1 70 21.1 74 74 S 9 15 29.87 1012 10 16 0.00 0.00
10:54 pm 22:54 Clear 78 25.6 70 21.1 76 76 S 12 19 29.87 1011 10 16 0.00 0.00
11:54 pm 23:54 Clear 76 24.4 70 21.1 82 82 S 7 11 29.87 1012 10 16 0.00 0.00

Powered by AerisWeather